Regional Weather Roundup
Issued by NWS Wakefield, VA

Home | Current Version | Previous Version | Text Only | Print | Product List | Glossary Off
Versions: 1 2 3 4 5 6 7 8 9 10 11 12 13 14 15 16 17 18 19 20 21 22 23 24 25 26 27 28

000
ASUS41 KAKQ 180810
RWRAKQ

REGIONAL WEATHER ROUNDUP
NATIONAL WEATHER SERVICE WAKEFIELD VA
400 AM EDT FRI APR 18 2014

Note: "fair" indicates few or no clouds below 12,000 feet with no
significant weather and/or obstructions to visibility. * = Denotes
station may not report precipitation (e.g., rain,snow,etc.),
thunder or fog.

VAZ042-051-052>054-056-180900-
NORTHERN VIRGINIA

CITY           SKY/WX    TMP DP  RH WIND       PRES   REMARKS
WASH NATIONAL  MOCLDY    40  30  67 E5        30.52S
DULLES         CLEAR     33  31  92 CALM      30.50F
FORT BELVOIR   PTCLDY    33  32  93 CALM      30.51F
QUANTICO       MOCLDY    41  32  70 E9        30.51F
FREDERICKSBRG* PTCLDY    36  34  93 NE3       30.50F
STAFFORD*      CLEAR     32  32 100 CALM      30.54F
WARRENTON      MOCLDY    33  33 100 CALM      30.49F
CULPEPER*      PTCLDY    36  36 100 CALM      30.50F
MANASSAS*      PTCLDY    34  34 100 CALM      30.50F
LEESBURG*      PTCLDY    36  34  93 CALM      30.51F
WINCHESTER     PTCLDY    36  32  87 CALM      30.46F
$$

VAZ048-049-060>072-079>083-180900-
CENTRAL AND SOUTH CENTRAL VIRGINIA...AND NORTH CENTRAL NORTH CAROLINA

CITY           SKY/WX    TMP DP  RH WIND       PRES   REMARKS
RICHMOND       PTCLDY    37  32  82 N5        30.48S
CHESTERFIELD*  NOT AVBL
HANOVER        CLEAR     34  32  92 CALM      30.50F
TAPPAHANNOCK*  CLOUDY    35  32  90 N3        30.48F
CHARLOTTSVILLE CLOUDY    39  34  82 E3        30.48S
ORANGE*        PTCLDY    34  32  93 CALM      30.50F
LOUISA*        PTCLDY    32  30  93 CALM      30.47F
FARMVILLE*     MOCLDY    37  36  93 CALM      30.46S
SOUTH HILL*    MOCLDY    37  37 100 N3        30.50S
ROANOKE RAPIDS PTSUNNY   41  37  87 N5        30.44S
RALEIGH        MOCLDY    40  35  83 NE6       30.43F
$$

VAZ088>098-180900-
SOUTHEAST VIRGINIA

CITY           SKY/WX    TMP DP  RH WIND       PRES   REMARKS
NORFOLK        CLOUDY    44  37  76 NE14      30.43F
VIRGINIA BEACH CLOUDY    44  38  79 N14       30.42F
NORFOLK NAVAL  CLOUDY    44  36  73 NE10      30.45F
WEST POINT*    CLOUDY    40  35  81 N3        30.48F
NEWPORT NEWS   LGT RAIN  46  36  68 E15       30.45F
LANGLEY AFB    CLOUDY    43  38  82 NE10      30.45F
FORT EUSTIS    CLOUDY    44  37  77 NE6       30.43F
WILLIAMSBURG*  CLOUDY    45  37  76 CALM      30.46F
FRANKLIN*      CLOUDY    43  37  81 NE9       30.45S
WAKEFIELD      CLOUDY    42  35  76 CALM      30.45F
$$

VAZ020-022-025-037-045-180900-
WESTERN AND SOUTHWEST VIRGINIA

CITY           SKY/WX    TMP DP  RH WIND       PRES   REMARKS
STAUNTON*      PTCLDY    36  30  81 CALM      30.45S
HOT SPRINGS VA MOCLDY    34  27  75 CALM      30.39F
LYNCHBURG      MOCLDY    42  33  70 NE6       30.47S
DANVILLE       PTCLDY    40  35  83 NE6       30.45F
MARTINSVILLE   MOCLDY    35  34  93 NE3       30.46F
ROANOKE        MOCLDY    41  32  70 S3        30.47R
BLACKSBURG     MOCLDY    37  34  87 E5        30.43S
DUBLIN*        MOCLDY    37  28  70 E3        30.42S
MARION*        MOCLDY    39  23  53 E5        30.40S
HILLSVILLE*    MOCLDY    37  19  48 CALM      30.41F
RICHLANDS*     PTSUNNY   47   9  21 SE10G16   30.32F
WISE*          MOCLDY    46  18  31 S7        30.33S
ABINGDON*      MOCLDY    47  23  38 E8        30.35S
$$

MDZ021>025-VAZ099-100-180900-
SOUTHERN MARYLAND AND THE DELMARVA PENINSULA

CITY           SKY/WX    TMP DP  RH WIND       PRES   REMARKS
PATUXENT RIVER CLOUDY    39  30  70 NE8       30.49F
BAY BRIDGE APT MOCLDY    39  32  75 E7        30.51S
LEONARDTOWN    CLOUDY    37  30  75 MISG      30.51S
DOVER          CLOUDY    39  33  77 NE9       30.46F
GEORGETOWN     CLOUDY    41  32  70 E7        30.49F
EASTON         PTCLDY    41  34  75 E8        30.53F
CAMBRIDGE      MOCLDY    41  32  70 E7        30.48F
SALISBURY      CLEAR     39  32  76 N6        30.47F
OCEAN CITY     PTCLDY    41  34  76 NE9       30.46F
WALLOPS ISLAND CLOUDY    38  33  82 N6        30.46F
ACCOMACK*      CLOUDY    37  32  81 NE7       30.45F
$$

NCZ012>017-030>032-180900-
EASTERN NORTH CAROLINA

CITY           SKY/WX    TMP DP  RH WIND       PRES   REMARKS
ELIZABETH CITY CLOUDY    45  40  82 N12       30.42F
AHOSKIE*       MOCLDY    40  36  84 CALM      30.44F
EDENTON*       MOCLDY    43  39  86 NE6       30.42F
CURRITUCK*     CLOUDY    45  39  81 N15       30.42F
KILL DEVIL HLS CLOUDY    46  44  92 N10G20    30.38S
MANTEO         CLOUDY    46  44  92 NE18G25   30.39S
CAPE HATTERAS  CLOUDY    49  47  93 N15G24    30.35S
GOLDSBORO      MOCLDY    42  40  95 NE6       30.41R
WASHINGTON     PTCLDY    43  38  84 N8        30.41F
GREENVILLE     PTCLDY    41  37  87 CALM      30.42S
NEW BERN       CLOUDY    46  41  82 N10       30.41S
WILMINGTON     CLEAR     46  40  79 N12       30.36F
$$

VAZ048-180900-
ELSEWHERE

CITY           SKY/WX    TMP DP  RH WIND       PRES   REMARKS
HARRISBURG PA  PTCLDY    36  28  73 E7        30.51S
BALTIMORE      MOCLDY    39  30  70 E8        30.50F
ANNAPOLIS      CLOUDY    41  32  70 E8        30.51F
ANDREWS AFB    CLOUDY    38  31  76 NE5       30.50S
WILMINGTON DE  CLOUDY    39  29  67 E7        30.52F
PHILADELPHIA   CLOUDY    39  28  64 E10       30.52F
WILDWOOD NJ*   CLOUDY    39  30  70 NE9       30.50F
ATLANTIC CITY  CLOUDY    39  32  76 NE8       30.50F
HENDERSON NC   CLEAR     38  36  91 N3        30.44S
GREENSBORO     PTCLDY    42  37  82 NE9       30.40F
ROCKY MOUNT      N/A    N/A N/A N/A MISG      30.44S
FAYETTEVILLE   CLOUDY    46  40  79 NE8       30.39F
CHARLOTTE      CLOUDY    50  39  66 E5        30.38R
$$

VAZ100-180900-
MARINE

STATION/POSITION TIME  TEMP    WIND        PRES    WAVE   SWELL
                       AIR SEA DIR/SP/G            HT/PER HT/PER
                 (UTC) (F)     (DEG/KT/KT) (MB)    (FT/S) (FT/S)
44066 TX TWR #4  0800   40 44   30/ 16/ 19 1032.2F   9/ 9   7/ 9
CAPE MAY NJ      0800   40 52   70/  5/  9 1032.3F
LEWES DE         0800   41 48   50/ 11/ 15 1031.8F
15NM E FENWICK I 0800   43 44              1031.2F   7/ 8
OCEAN-CITY-INLET 0800   42 45   30/  8/ 13 1031.2F
WACHAPREAGUE VA  0800   38 52  360/  5/  8 1030.9F
THOMAS POINT MD  0800   39 51   50/  8/ 10 1033.7F
COVE POINT MD    0800   39      70/  9/ 12 1032.5S
SOLOMONS ISLAND  0800      51                N/A
BISHOPS HEAD MD  0800   40 53   50/ 10/ 12 1031.7F
PINEY POINT MD   0800           70/  6/  7   N/A
POTOMAC MD       0800   41      80/ 12/ 14 1031.3F
CAMBRIDGE MD     0800   41 55   60/ 10/ 13 1032.1F
LEWISETTA VA     0800   42 52   60/  7/ 11 1031.8F
RAPPAHANNOCK LGT 0800           40/ 17/ 19 1031.6F
STINGRAY PT      0700   43 51   60/ 10/ 14 1032.1
YORK RVR RNG VA  0800   44      60/ 15/ 18 1030.4F
YORKTOWN VA      0800   44 54   60/ 13/ 16 1030.9F
JAMESTOWN VA     0800   42      70/  8/ 10   N/A
DOMINION TERM VA 0800   44      50/  6/  9 1030.9F
KIPTOPEKE VA     0800      52   10/  5/  7   N/A
CHES BAY BRIDGE  0800   44 48   30/ 14/ 16 1030.4S
CAPE HENRY VA    0800   43      30/ 16/ 19   N/A
CHESAPEAKE LGHT  0700   43      30/ 18/ 20 1031.0F
WILLOUBY STN VA  0800   43      50/ 14/ 17 1029.8F
S CRANEY ISL VA  0800          360/  9/ 13 1030.8F
CAPE HENRY BUOY  0800      47                N/A     6/11   3/11
1ST LANDING BUOY 0800      45                N/A     6/12   5/12
64NM E OF VA BCH 0800   49 49   20/ 17/ 21 1028.1F  10/11   8/11
DUCK PIER NC     0800   45 51   10/ 17/ 22 1028.1F
44100 DUCK FRF   0800      48                N/A     8/10   3/11
44056 DUCK FRF   0800      51                N/A     8/10   3/12
OREGON INLET NC  0800   46 51  360/ 16/ 22 1028.4S
HATTERAS NC      0800   51 56   20/ 14/ 22 1027.6S
CAPE LOOKOUT NC  0700   51      20/ 19/ 27 1027.0F
FRYING PAN SHLS  0800   58 63   40/ 21/ 27 1025.4F   8/ 6   3/ 9
$$



USA.gov is the U.S. government's official web portal to all federal, state and local government web resources and services.